Wetbulb
57.07 56.81 56.63 56.89 56.63 56.10 54.95 54.19 53.76 54.18 54.96 55.05 54.62 54.71 54.64 54.88 55.03 54.66 54.00 53.04 54.10 54.81 54.52 54.87 54.88 57.35 54.76 47.39 45.84 53.58 56.33 55.33 54.50 54.25 51.52 51.28 50.22 48.62 45.58 44.91 45.54 44.16 42.45 42.73 43.49 43.67 42.99
56.63 57.01 56.96 56.67 56.69 55.96 54.86 54.11 53.39 53.52 53.75 54.10 53.99 54.35 54.22 54.25 54.38 54.55 54.13 52.82 53.64 54.07 54.43 55.60 57.01 56.31 49.30 41.28 53.24 54.13 52.23 52.29 51.38 51.85 51.13 51.87 51.14 49.00 44.86 43.33 44.80 44.25 42.95 41.82 43.03 42.67 42.60
56.37 56.85 56.92 56.72 56.59 56.32 54.77 53.95 53.16 53.29 53.22 53.36 53.85 53.85 54.16 54.31 54.85 54.72 54.13 53.52 54.05 54.43 55.13 56.69 56.12 53.55 47.46 45.46 52.93 53.33 52.24 51.42 51.98 50.70 48.83 49.65 50.49 48.19 46.76 41.92 44.41 43.78 40.28 42.25 41.80 41.97 41.70
56.02 56.33 56.58 56.74 56.27 55.93 55.15 53.97 53.21 52.89 53.16 53.16 53.85 53.56 53.90 54.02 54.06 53.76 53.73 54.62 54.33 55.02 55.68 56.02 55.58 52.68 44.13 51.78 54.20 51.18 52.35 51.14 50.65 50.05 50.22 50.21 50.67 46.28 44.70 44.93 42.11 40.80 42.48 39.62 40.10 41.62 42.23
56.00 55.93 56.29 56.31 56.04 56.03 55.46 54.28 53.21 53.04 52.69 53.64 53.75 53.59 53.98 53.59 53.69 53.90 53.44 53.63 54.00 54.47 54.54 53.61 51.47 49.14 42.03 52.80 47.59 50.96 52.29 48.49 49.90 48.45 49.28 48.92 48.35 43.93 43.00 41.97 40.18 39.22 37.44 37.97 37.06 41.38 41.33
55.74 55.30 55.73 55.92 56.22 55.86 55.34 54.51 53.20 52.90 52.46 53.19 53.28 53.21 53.23 53.14 53.04 53.25 52.66 51.64 53.90 52.86 51.98 51.88 49.52 43.68 44.58 43.27 48.39 50.65 52.23 50.51 46.05 47.48 46.84 45.93 44.71 42.21 41.77 41.90 36.32 36.53 36.16 36.44 37.77 39.15 40.45
55.22 55.35 55.34 55.50 55.60 55.71 55.09 54.03 53.19 52.83 52.20 52.79 52.75 52.94 52.85 52.94 52.68 52.09 50.96 50.51 46.73 44.47 45.38 40.92 42.10 42.02 44.24 47.80 50.72 48.37 50.40 48.47 46.70 45.94 40.20 41.26 40.78 38.61 40.32 38.14 39.36 38.93 39.60 36.62 37.33 40.04 39.76
54.31 54.51 54.86 55.25 55.29 55.28 54.94 54.57 52.90 52.70 51.87 51.71 52.53 52.62 52.81 52.68 51.75 51.50 50.34 44.67 42.95 46.24 38.09 43.59 44.18 44.28 46.67 47.34 41.94 45.90 50.18 44.27 43.62 38.15 41.20 40.56 36.18 37.75 38.70 39.44 39.29 39.59 38.65 36.76 38.25 40.06 40.05
54.00 53.71 54.26 54.65 54.89 55.08 54.42 54.49 53.31 52.15 51.88 51.56 51.79 52.66 52.81 52.46 50.56 49.73 47.28 45.53 49.62 48.21 39.62 39.60 43.52 42.06 43.75 45.84 41.77 43.08 46.69 43.39 40.19 38.19 39.86 37.81 36.75 38.74 39.40 39.25 38.49 37.95 37.76 36.19 36.80 38.13 38.87
53.51 53.76 53.49 54.06 54.51 54.62 54.39 53.75 53.94 52.20 51.30 51.28 51.59 52.28 52.70 51.39 49.31 46.72 45.72 49.10 50.01 48.32 35.36 33.84 38.41 42.43 44.37 45.18 39.84 46.72 47.01 43.68 40.32 36.68 38.64 37.49 39.22 38.28 38.84 36.45 38.90 36.14 39.09 38.58 37.03 37.71 36.36
53.06 53.20 53.02 53.48 53.54 54.08 54.20 53.59 53.66 53.57 52.05 51.37 51.69 51.89 52.20 49.46 46.56 45.45 46.88 49.50 49.43 44.87 24.12 36.04 38.54 46.61 45.30 41.04 41.83 43.01 47.74 43.79 38.06 36.58 38.98 33.71 36.94 37.77 37.19 36.30 39.05 36.53 40.30 38.56 37.86 37.24 36.32
52.81 52.64 52.85 52.95 53.25 53.11 53.60 53.71 53.21 53.71 53.56 52.42 51.61 51.30 50.18 48.32 47.47 46.69 48.54 47.94 45.03 34.57 23.15 33.32 39.49 39.05 38.82 40.60 40.66 43.22 43.21 45.86 44.21 40.13 40.15 37.98 41.15 40.22 38.88 39.97 40.76 40.54 38.36 37.80 38.01 37.01 33.60
52.55 52.32 52.53 52.69 52.95 53.06 52.81 53.19 53.13 52.84 53.96 53.16 52.19 50.49 49.49 49.00 44.76 48.59 47.16 43.71 35.47 27.45 33.91 33.62 35.40 38.25 38.71 37.66 38.73 39.85 38.46 37.65 36.33 33.57 33.35 37.45 37.11 40.54 41.26 38.40 40.20 38.94 36.52 34.27 33.45 34.41 33.03
52.49 52.63 52.78 52.92 52.71 52.67 52.91 53.16 52.83 52.76 53.82 52.58 50.76 48.53 48.07 48.43 49.78 47.62 45.54 38.97 28.11 31.32 33.09 38.02 37.53 37.99 35.29 38.15 38.26 38.78 38.23 36.27 38.49 37.78 33.36 32.60 28.89 36.83 40.71 38.24 36.88 36.19 35.44 35.07 31.29 30.13 33.54
52.15 52.77 52.56 52.49 52.86 53.01 53.11 53.11 53.03 52.54 53.05 51.88 48.79 49.48 48.51 48.71 48.68 47.86 42.63 32.79 31.91 34.02 36.66 35.87 36.76 34.93 34.94 37.77 38.17 38.39 37.80 36.92 38.46 38.59 33.62 32.03 31.39 39.65 39.97 41.32 40.01 36.09 35.53 36.02 31.52 30.72 31.35
52.90 52.83 52.64 52.34 52.37 52.77 53.02 53.01 52.98 52.80 52.31 49.82 48.39 47.29 48.01 48.64 48.18 45.45 41.47 33.57 35.42 38.61 39.14 38.10 33.09 35.91 32.81 35.07 35.58 36.75 36.25 38.81 38.45 40.63 40.32 36.08 31.63 38.07 39.67 42.02 41.33 38.63 39.28 33.56 34.64 28.02 27.30
53.08 53.09 53.03 52.44 51.90 52.28 52.70 52.90 52.75 52.28 50.93 48.59 47.97 45.37 47.35 48.49 47.06 46.03 36.21 36.51 38.41 40.84 40.73 37.36 35.33 35.42 35.69 35.05 35.75 35.36 35.12 38.53 40.65 39.98 40.76 39.17 36.90 35.00 39.08 37.02 36.38 36.59 36.18 34.87 35.47 33.95 31.63
53.11 53.20 53.20 52.78 51.85 51.77 52.47 52.63 52.48 51.41 49.98 47.66 46.36 44.39 48.58 48.95 44.21 41.08 38.95 38.43 40.81 40.38 41.75 40.13 39.98 38.19 36.41 35.78 35.70 35.45 35.36 38.35 42.12 42.26 38.56 39.55 37.68 33.52 34.23 38.46 40.08 39.04 36.99 37.17 34.14 30.13 32.68
53.02 53.13 53.09 52.72 52.19 51.36 51.90 52.46 52.40 52.08 50.78 47.15 45.65 44.69 48.01 45.87 40.89 39.57 39.61 39.15 40.33 39.81 39.40 39.84 39.20 40.39 40.20 36.91 34.82 37.06 38.26 41.71 42.48 41.11 39.46 40.39 35.91 31.07 31.79 35.43 37.91 36.67 37.76 37.29 35.29 35.58 31.62
52.96 52.91 53.01 52.60 52.27 51.52 51.42 52.11 51.96 53.22 51.44 47.81 44.26 43.28 45.37 44.84 41.51 40.54 38.68 37.80 37.72 41.03 39.78 39.69 39.48 40.54 38.62 37.06 38.46 36.14 37.54 40.36 42.05 41.83 40.79 41.62 36.34 33.77 32.26 32.63 37.09 34.22 35.87 36.75 36.68 32.94 33.42
53.26 52.86 52.76 52.62 52.14 51.65 51.02 51.69 51.43 52.43 50.20 46.81 42.41 40.65 40.00 40.08 40.14 39.75 39.40 38.59 36.85 36.85 40.27 40.15 38.36 38.39 37.57 35.06 35.43 35.62 37.78 39.17 41.03 40.91 39.88 39.11 32.97 32.29 33.77 33.90 34.51 35.05 35.79 35.43 34.07 36.37 33.32
53.02 53.04 52.72 52.52 52.04 51.70 50.83 51.17 51.25 50.61 48.76 45.47 43.40 42.13 39.43 38.84 37.91 38.75 37.67 37.33 36.40 37.65 37.91 37.15 37.40 37.75 38.08 36.25 36.49 35.38 37.58 38.14 37.37 39.87 38.41 37.93 32.31 32.16 29.37 32.01 32.25 30.79 33.85 35.65 36.16 36.70 36.36
53.36 52.75 52.92 52.48 51.98 51.43 50.95 51.15 51.06 48.70 47.30 44.98 41.94 41.94 41.88 35.64 37.33 37.59 37.61 37.74 37.50 38.81 39.16 39.62 38.63 37.78 36.66 37.40 39.55 39.26 39.62 40.17 40.32 38.99 37.08 35.89 34.04 31.03 28.30 29.98 30.64 28.65 32.23 33.28 34.39 36.30 36.76
53.52 52.58 52.89 52.66 51.84 51.18 50.97 50.56 50.56 48.87 45.40 45.79 43.62 43.71 42.60 37.14 37.47 37.57 36.39 38.16 37.87 38.72 37.92 39.21 39.65 37.74 38.72 41.25 40.68 40.88 39.45 38.39 38.82 36.88 38.21 35.13 33.85 32.27 29.56 30.04 25.35 31.14 35.13 35.90 34.83 36.07 37.89
53.98 53.32 52.42 52.48 51.77 50.98 50.70 50.46 50.13 49.62 45.41 44.92 43.26 43.45 41.65 37.76 37.23 36.21 36.61 37.27 37.75 38.05 37.66 37.64 38.91 40.34 42.30 38.88 35.13 32.09 33.13 33.63 33.31 34.26 35.81 36.43 35.33 30.92 28.44 27.91 31.73 31.82 32.61 33.73 34.01 33.06 36.96
54.43 53.71 53.03 52.03 51.94 50.91 50.48 50.35 50.19 49.47 45.57 44.39 42.46 42.59 42.14 38.70 36.87 38.24 37.70 37.82 37.17 36.51 36.32 37.05 39.97 41.00 39.44 36.96 34.04 28.51 28.55 30.19 29.69 30.98 34.72 34.70 35.90 33.35 28.82 25.14 27.28 32.98 35.06 37.52 37.06 31.55 36.44
54.38 53.74 52.89 52.37 52.70 51.17 50.28 50.14 50.06 49.74 46.67 45.48 43.28 42.16 42.31 38.84 37.91 38.48 38.56 37.84 37.11 35.77 35.70 36.17 37.98 37.93 38.14 35.52 31.46 29.64 29.60 30.81 29.21 28.54 29.52 31.27 31.94 29.73 29.94 28.52 32.48 36.60 36.81 37.61 30.28 31.77 37.32
54.10 53.41 52.62 52.27 53.02 52.23 50.46 49.79 49.71 49.79 47.66 45.63 43.45 43.29 42.36 39.08 38.08 39.27 39.67 37.75 37.07 36.91 35.67 35.38 36.88 36.19 35.48 32.94 32.02 32.01 30.79 30.93 29.25 30.81 31.06 30.33 29.09 28.59 29.63 27.03 26.95 37.12 35.64 33.43 35.39 38.82 38.62
53.93 53.20 52.53 51.92 52.57 52.71 51.43 49.87 49.15 49.50 48.27 44.60 42.91 43.73 42.78 41.11 38.67 39.93 40.73 40.45 39.73 39.62 37.91 36.35 35.17 35.69 38.74 35.38 33.46 32.75 30.51 30.33 31.20 30.62 31.11 29.63 34.03 32.12 33.40 33.90 36.73 37.71 37.98 37.83 38.71 37.29 37.26
MSLP
1020.67 1020.31 1019.90 1019.40 1019.02 1018.80 1018.57 1018.40 1018.14 1017.70 1017.32 1016.97 1016.66 1016.26 1015.81 1015.36 1014.87 1014.35 1014.45 1014.43 1013.96 1013.67 1013.51 1013.41 1013.25 1013.48 1013.68 1014.52 1015.88 1015.94 1015.25 1014.91 1014.65 1014.66 1014.12 1013.77 1013.70 1013.98 1014.13 1014.77 1015.29 1015.69 1016.41 1016.85 1017.12 1017.04 1017.03
1020.78 1020.39 1020.04 1019.49 1019.10 1018.91 1018.73 1018.55 1018.31 1017.89 1017.57 1017.19 1016.88 1016.53 1016.12 1015.60 1015.13 1014.79 1014.69 1014.72 1014.20 1013.95 1013.67 1013.53 1013.34 1013.49 1013.71 1014.61 1015.09 1015.65 1015.52 1015.29 1014.84 1014.52 1013.97 1013.77 1013.42 1014.00 1014.74 1015.29 1015.36 1016.22 1016.61 1017.26 1017.59 1017.61 1017.69
1020.92 1020.49 1020.10 1019.61 1019.20 1018.89 1018.77 1018.66 1018.36 1018.02 1017.77 1017.44 1017.03 1016.69 1016.30 1015.85 1015.48 1015.03 1014.87 1014.67 1014.41 1013.97 1013.60 1013.54 1013.68 1013.52 1014.44 1016.70 1016.77 1016.22 1015.68 1015.71 1015.26 1014.53 1013.77 1014.01 1013.82 1014.00 1014.80 1015.51 1016.46 1016.36 1016.81 1017.24 1017.91 1017.96 1018.04
1021.04 1020.59 1020.21 1019.79 1019.30 1019.00 1018.81 1018.65 1018.43 1018.20 1017.93 1017.63 1017.21 1016.78 1016.38 1016.02 1015.67 1015.30 1015.01 1014.48 1014.21 1013.86 1013.58 1013.66 1013.71 1013.75 1015.84 1017.00 1016.82 1016.90 1016.69 1015.74 1014.89 1014.49 1014.00 1014.38 1014.17 1014.64 1015.31 1015.98 1016.42 1016.09 1016.42 1016.87 1018.15 1018.17 1018.18
1021.10 1020.74 1020.31 1019.95 1019.41 1019.04 1018.83 1018.66 1018.48 1018.28 1018.08 1017.76 1017.37 1017.01 1016.71 1016.20 1015.88 1015.41 1015.16 1014.87 1014.38 1014.29 1013.98 1013.90 1014.17 1014.45 1016.70 1017.12 1017.09 1016.99 1017.05 1016.16 1015.23 1014.59 1014.32 1014.53 1014.52 1015.25 1015.92 1015.41 1015.88 1016.03 1016.02 1016.65 1018.05 1018.34 1018.08
1021.15 1020.91 1020.47 1020.06 1019.60 1019.14 1018.90 1018.70 1018.52 1018.37 1018.17 1017.95 1017.67 1017.36 1017.01 1016.58 1016.13 1015.53 1015.14 1015.18 1014.77 1014.69 1014.48 1014.11 1014.91 1015.64 1017.00 1017.45 1017.09 1017.11 1016.82 1016.13 1014.92 1014.28 1014.12 1014.66 1014.96 1015.11 1015.45 1014.95 1014.67 1015.17 1015.97 1016.79 1017.44 1018.41 1018.16
1021.27 1020.97 1020.58 1020.15 1019.74 1019.32 1019.03 1018.68 1018.56 1018.39 1018.27 1018.18 1017.84 1017.49 1017.10 1016.69 1016.26 1015.78 1015.05 1015.28 1015.38 1015.92 1016.25 1016.78 1016.94 1016.89 1017.45 1017.69 1017.27 1016.91 1016.33 1015.56 1014.45 1013.98 1014.36 1015.52 1014.93 1015.25 1015.55 1015.87 1015.27 1015.33 1015.56 1016.68 1018.09 1018.68 1018.25
1021.40 1021.01 1020.67 1020.25 1019.90 1019.55 1019.17 1018.84 1018.64 1018.44 1018.32 1018.25 1018.05 1017.62 1017.12 1016.78 1016.51 1016.11 1015.82 1016.50 1017.51 1017.77 1017.85 1017.78 1017.55 1017.53 1017.69 1017.77 1017.11 1016.32 1016.07 1014.59 1014.17 1014.56 1015.15 1015.99 1016.45 1017.23 1016.90 1016.36 1015.83 1015.62 1016.13 1017.32 1018.42 1018.65 1018.15
1021.52 1021.15 1020.76 1020.36 1020.00 1019.73 1019.36 1019.01 1018.74 1018.57 1018.44 1018.32 1018.22 1017.92 1017.45 1016.94 1016.69 1016.55 1017.10 1017.84 1017.94 1017.72 1018.07 1018.91 1018.81 1018.69 1018.63 1018.31 1017.81 1016.76 1016.29 1015.69 1015.24 1015.38 1015.66 1016.21 1017.92 1017.91 1017.36 1016.91 1016.44 1016.99 1016.93 1017.65 1018.05 1018.49 1018.35
1021.61 1021.26 1020.84 1020.46 1020.09 1019.82 1019.55 1019.19 1018.92 1018.64 1018.50 1018.41 1018.23 1018.07 1017.77 1017.14 1017.11 1017.30 1017.34 1018.16 1017.98 1018.04 1018.44 1019.78 1019.25 1019.29 1018.89 1017.99 1017.37 1017.04 1016.75 1016.05 1016.07 1016.53 1016.77 1017.86 1018.55 1018.23 1017.80 1017.68 1017.58 1017.75 1018.53 1018.32 1018.29 1018.01 1017.96
1021.55 1021.32 1021.00 1020.60 1020.21 1019.90 1019.64 1019.32 1019.00 1018.74 1018.48 1018.28 1018.22 1018.06 1017.94 1017.70 1017.93 1017.80 1018.13 1018.30 1018.15 1017.78 1018.61 1020.29 1019.43 1019.37 1018.68 1017.99 1017.85 1016.50 1016.44 1016.01 1016.51 1017.16 1017.27 1019.22 1018.98 1018.77 1018.52 1019.12 1018.60 1018.96 1019.05 1018.89 1018.52 1018.14 1018.25
1021.52 1021.30 1021.05 1020.75 1020.33 1019.96 1019.65 1019.32 1019.09 1018.73 1018.50 1018.28 1018.06 1018.05 1017.88 1017.88 1018.18 1018.49 1018.40 1018.55 1018.39 1018.38 1019.93 1020.18 1019.73 1019.14 1018.28 1017.69 1017.31 1016.82 1016.46 1016.27 1017.10 1017.11 1017.87 1019.11 1019.67 1019.55 1019.67 1019.74 1019.03 1019.45 1019.37 1019.17 1018.92 1018.60 1018.39
1021.41 1021.26 1020.96 1020.73 1020.43 1020.00 1019.62 1019.22 1018.97 1018.76 1018.42 1018.32 1018.19 1018.11 1018.10 1017.96 1018.19 1018.28 1018.34 1018.02 1018.18 1018.82 1020.80 1020.37 1019.73 1018.70 1017.68 1017.35 1017.05 1016.85 1016.74 1016.69 1016.98 1017.61 1018.58 1019.11 1019.90 1020.14 1020.07 1019.81 1019.97 1019.66 1019.25 1019.39 1019.31 1018.77 1018.38
1021.45 1021.16 1020.93 1020.70 1020.41 1020.02 1019.60 1019.13 1018.81 1018.63 1018.35 1018.23 1018.22 1018.11 1018.35 1017.99 1018.14 1018.11 1017.84 1017.36 1017.80 1019.97 1019.64 1019.87 1019.09 1018.25 1017.62 1017.25 1017.22 1016.92 1016.95 1017.12 1017.55 1017.37 1018.65 1019.35 1020.75 1020.54 1020.54 1020.15 1019.79 1020.06 1019.65 1019.22 1018.65 1018.41 1018.17
1021.50 1021.18 1020.91 1020.64 1020.40 1020.04 1019.60 1019.10 1018.69 1018.43 1018.19 1018.06 1018.14 1018.01 1017.94 1017.93 1017.92 1017.71 1017.49 1017.41 1018.75 1019.02 1019.24 1018.70 1018.33 1017.63 1017.33 1017.20 1016.91 1017.00 1017.41 1017.72 1018.17 1018.20 1018.29 1019.33 1020.57 1020.93 1020.74 1020.39 1020.49 1020.21 1020.10 1020.17 1019.35 1019.41 1018.38
1021.56 1021.22 1020.95 1020.64 1020.38 1019.97 1019.61 1019.16 1018.66 1018.26 1017.95 1018.05 1017.92 1017.89 1017.83 1017.97 1018.07 1017.37 1016.83 1018.02 1018.56 1018.46 1018.23 1018.09 1017.64 1017.49 1017.27 1017.36 1017.19 1017.11 1017.71 1018.28 1018.27 1018.43 1018.52 1019.05 1020.03 1020.78 1020.90 1020.74 1020.71 1020.34 1020.52 1020.13 1019.32 1018.68 1017.42
1021.63 1021.28 1021.02 1020.68 1020.36 1019.99 1019.55 1019.16 1018.76 1018.46 1018.22 1018.15 1017.94 1017.63 1018.01 1017.89 1017.64 1016.99 1017.79 1018.41 1018.74 1018.74 1018.56 1018.32 1017.75 1017.58 1017.59 1017.50 1017.50 1017.44 1018.08 1018.54 1018.38 1018.63 1018.65 1018.76 1018.95 1020.86 1020.88 1020.50 1020.18 1020.64 1020.11 1019.98 1019.42 1018.78 1017.37
1021.60 1021.30 1021.06 1020.69 1020.30 1020.01 1019.57 1019.13 1018.76 1018.52 1018.38 1018.20 1017.97 1017.59 1017.78 1017.78 1017.49 1018.09 1018.32 1018.53 1018.51 1018.56 1018.66 1018.40 1018.03 1017.70 1017.67 1017.62 1017.68 1017.78 1017.95 1018.43 1018.69 1018.68 1018.58 1018.93 1019.07 1019.84 1020.38 1020.78 1020.68 1020.22 1019.78 1019.37 1018.57 1018.66 1018.13
1021.61 1021.25 1021.03 1020.70 1020.34 1019.95 1019.60 1019.09 1018.60 1018.17 1018.18 1018.20 1017.82 1017.81 1017.58 1017.50 1017.39 1017.65 1018.09 1018.12 1018.08 1017.90 1017.84 1017.66 1017.43 1017.29 1017.50 1017.63 1017.88 1018.18 1018.59 1019.05 1019.03 1018.94 1018.92 1018.93 1019.11 1019.67 1020.41 1020.96 1020.82 1020.19 1019.82 1019.53 1019.24 1018.71 1017.76
1021.60 1021.28 1021.02 1020.74 1020.40 1020.05 1019.60 1019.09 1018.36 1017.72 1018.02 1018.19 1018.02 1017.79 1017.57 1017.51 1017.99 1017.45 1017.41 1017.59 1017.64 1017.64 1017.53 1017.50 1017.54 1017.47 1017.52 1017.88 1018.16 1018.51 1018.89 1019.34 1019.36 1019.34 1019.43 1019.14 1019.03 1018.93 1018.95 1019.18 1019.28 1019.59 1019.54 1019.63 1019.17 1018.57 1017.34
1021.52 1021.32 1021.04 1020.77 1020.49 1020.17 1019.73 1019.25 1018.71 1018.27 1018.41 1018.44 1018.41 1018.74 1018.85 1018.28 1018.11 1017.92 1017.83 1017.69 1017.66 1017.65 1017.69 1017.65 1017.61 1017.54 1017.56 1017.82 1018.22 1018.56 1019.06 1019.38 1019.62 1019.75 1019.70 1019.56 1019.34 1019.66 1019.54 1019.65 1019.64 1019.46 1019.34 1019.39 1018.99 1018.13 1017.34
1021.33 1021.30 1021.08 1020.77 1020.57 1020.24 1019.89 1019.42 1019.04 1018.73 1018.60 1018.43 1018.66 1018.74 1019.19 1018.67 1018.37 1018.08 1018.13 1018.00 1018.07 1018.13 1018.13 1017.82 1017.76 1018.09 1018.12 1018.06 1018.33 1018.57 1018.90 1019.26 1019.44 1020.08 1020.05 1020.20 1020.05 1020.15 1019.89 1019.93 1019.77 1019.41 1019.11 1019.04 1018.86 1018.25 1017.53
1021.10 1021.15 1021.05 1020.82 1020.59 1020.33 1020.03 1019.62 1019.14 1018.94 1018.82 1018.66 1019.50 1019.32 1018.64 1018.91 1018.45 1018.12 1018.03 1018.16 1018.20 1018.30 1018.69 1018.55 1018.44 1018.52 1018.87 1019.30 1019.26 1019.40 1019.44 1019.41 1019.44 1019.76 1020.09 1020.34 1020.29 1020.26 1019.84 1019.94 1019.65 1018.97 1017.85 1018.07 1017.94 1017.81 1017.41
1020.89 1020.97 1020.90 1020.77 1020.60 1020.45 1020.17 1019.77 1019.39 1019.12 1019.03 1019.00 1019.41 1019.20 1018.53 1018.36 1018.42 1018.26 1018.27 1018.33 1018.46 1018.45 1018.47 1018.85 1018.94 1019.06 1019.95 1019.99 1019.93 1019.88 1020.01 1020.22 1020.32 1020.57 1020.53 1020.43 1020.42 1020.44 1019.98 1019.51 1018.81 1017.55 1017.63 1017.58 1017.54 1017.25 1017.19
1020.64 1020.72 1020.73 1020.64 1020.59 1020.45 1020.29 1020.00 1019.61 1019.26 1019.25 1019.24 1019.84 1019.45 1018.86 1018.40 1018.51 1018.44 1018.54 1018.63 1018.81 1018.91 1019.02 1019.18 1019.51 1019.70 1019.84 1019.90 1019.75 1019.89 1020.17 1020.39 1020.74 1021.10 1021.09 1021.02 1020.50 1020.14 1019.69 1018.69 1017.37 1016.91 1017.37 1017.43 1017.20 1017.04 1016.94
1020.27 1020.46 1020.52 1020.46 1020.49 1020.47 1020.31 1020.14 1019.83 1019.49 1019.40 1019.53 1020.21 1020.20 1019.32 1018.85 1018.73 1018.71 1018.74 1018.93 1018.89 1019.08 1019.36 1019.77 1020.22 1020.29 1020.09 1019.70 1019.42 1019.26 1019.28 1019.71 1020.51 1021.16 1021.47 1021.23 1020.77 1020.14 1019.89 1018.72 1016.99 1016.37 1016.85 1017.08 1017.14 1017.01 1017.25
1019.84 1020.11 1020.27 1020.29 1020.29 1020.32 1020.29 1020.18 1020.00 1019.69 1019.55 1019.52 1020.20 1020.44 1019.74 1019.20 1019.19 1019.27 1019.11 1019.19 1019.35 1019.45 1019.53 1019.97 1020.18 1020.34 1020.17 1019.51 1019.23 1019.19 1019.24 1019.75 1019.92 1020.25 1020.72 1020.80 1020.63 1020.05 1019.47 1018.58 1017.01 1016.69 1017.20 1017.50 1017.67 1018.09 1017.80
1019.47 1019.69 1019.98 1020.10 1020.13 1020.13 1020.12 1020.14 1020.02 1019.85 1019.64 1019.66 1020.29 1020.33 1020.00 1019.71 1019.74 1019.77 1019.70 1019.74 1019.94 1019.80 1019.57 1020.27 1020.50 1020.37 1020.22 1019.49 1019.10 1018.99 1019.15 1019.56 1019.68 1019.62 1019.71 1019.62 1019.73 1019.66 1019.48 1018.73 1017.61 1017.30 1017.88 1018.07 1018.35 1018.09 1018.33
1019.04 1019.23 1019.62 1019.85 1019.88 1019.80 1019.92 1019.91 1019.95 1019.89 1019.66 1019.64 1020.08 1020.44 1020.39 1020.05 1020.34 1020.38 1020.31 1020.41 1020.41 1020.13 1019.97 1020.34 1020.02 1019.73 1019.57 1019.37 1019.54 1019.35 1019.13 1019.37 1018.93 1018.81 1019.56 1019.37 1018.81 1018.74 1018.82 1017.88 1017.44 1017.76 1017.94 1018.41 1018.58 1018.70 1018.62
Wind_Speed
16 16 17 16 15 13 12 12 13 13 15 15 15 16 17 18 17 13 9 10 10 10 7 8 3 13 8 6 3 7 17 23 8 7 12 16 17 9 12 9 7 7 6 6 6 8 8
16 16 18 16 15 11 10 11 11 13 14 14 14 15 16 16 15 16 9 8 9 8 8 10 15 9 5 5 6 9 12 14 5 9 12 13 12 5 9 5 1 7 12 10 6 6 4
16 17 18 17 15 13 8 10 9 12 13 13 13 14 14 15 16 15 8 5 7 7 3 13 12 9 14 6 2 6 12 13 10 7 8 4 10 4 8 10 9 14 13 9 7 3 3
15 17 18 18 16 14 8 9 10 9 13 13 12 11 11 13 14 13 14 14 9 11 11 10 9 7 7 1 3 5 8 14 3 1 8 8 11 11 2 13 5 6 6 8 3 2 1
15 17 17 18 16 13 11 9 10 9 11 12 13 11 13 14 16 14 12 11 7 14 10 4 9 7 7 2 3 4 4 9 9 4 9 6 5 5 5 11 7 2 7 7 5 3 2
15 15 17 18 19 14 12 10 10 8 9 10 11 13 14 14 15 13 11 3 18 11 7 8 6 6 3 5 2 4 6 10 2 11 9 5 4 7 7 10 9 10 7 5 6 2 1
14 15 16 16 18 15 12 12 11 8 7 8 9 12 14 14 15 11 5 2 1 8 15 10 7 3 4 4 4 2 7 7 3 6 10 4 10 10 10 1 3 9 12 10 4 3 3
13 13 15 16 16 17 13 11 11 9 6 7 10 13 14 13 15 11 5 6 2 3 8 12 13 8 4 3 4 6 12 3 7 11 8 6 9 4 4 6 10 9 14 6 5 2 3
12 12 14 16 16 16 13 11 9 9 8 8 10 12 15 13 6 7 10 6 3 2 5 7 5 5 4 5 2 4 11 5 8 10 10 10 6 0 7 11 14 10 6 5 4 3 3
12 13 13 14 15 15 14 11 8 6 6 7 10 11 14 16 1 4 4 3 4 0 3 10 8 5 4 6 7 2 3 4 5 13 12 10 4 5 8 8 3 6 4 6 6 4 1
12 12 12 13 13 15 14 12 10 6 3 4 6 9 10 11 2 2 4 2 3 2 5 11 6 3 5 2 6 8 4 6 8 5 3 3 6 7 9 4 4 6 4 6 4 4 1
12 11 12 12 13 13 13 12 12 10 7 3 3 5 5 2 0 1 2 3 2 1 6 5 5 4 3 1 2 1 4 7 4 16 18 9 2 5 4 9 9 12 7 6 3 1 3
11 11 12 12 12 12 13 13 12 10 10 7 4 4 2 1 2 3 3 2 3 6 2 5 4 2 10 8 6 3 5 7 4 6 4 6 7 3 3 7 4 1 3 2 2 2 2
10 11 12 12 12 12 13 13 12 10 10 5 2 3 3 1 0 2 2 2 10 3 3 3 2 4 6 4 6 4 5 6 9 7 5 4 4 3 4 4 2 3 1 1 3 3 2
9 11 11 12 12 12 13 13 14 12 8 3 2 1 1 1 3 2 2 7 3 3 4 4 1 6 4 5 3 4 7 5 3 4 3 5 4 1 2 2 3 4 1 2 5 2 2
8 10 11 12 12 13 13 14 14 15 3 3 2 3 1 4 2 3 4 8 4 2 2 2 4 3 4 3 2 3 3 1 3 3 3 4 8 2 3 1 8 2 7 3 1 2 3
8 10 11 12 12 13 13 14 13 12 5 2 1 3 3 4 3 4 5 6 5 2 1 2 1 3 3 2 2 3 3 2 1 3 2 4 3 5 3 5 4 4 3 3 1 2 2
8 10 11 12 13 13 14 14 12 9 1 2 1 1 3 3 3 2 3 1 1 3 4 4 3 2 2 1 3 3 3 3 1 2 3 2 5 5 2 2 2 1 2 5 4 5 0
7 9 11 12 13 14 15 16 15 9 5 1 2 3 2 3 3 3 3 3 1 1 2 2 4 5 4 3 2 3 3 3 2 1 2 4 3 6 4 4 2 6 7 3 3 1 7
7 8 9 11 13 14 15 17 18 6 9 0 1 1 2 3 2 2 3 3 3 1 2 2 3 2 2 3 4 4 3 3 2 2 5 1 2 3 1 4 3 5 8 10 7 4 4
5 7 8 11 12 14 15 16 16 8 7 2 3 2 1 2 3 3 3 2 1 2 1 1 2 2 3 3 2 3 2 2 3 3 3 3 1 1 2 2 2 3 6 13 16 10 8
5 6 8 9 11 13 14 15 14 4 3 1 1 1 1 2 2 1 1 1 0 1 3 1 1 2 1 2 1 5 5 3 1 3 2 2 1 1 2 1 4 7 11 12 15 17 18
3 6 6 8 9 12 13 13 14 10 3 1 1 1 2 1 1 2 1 3 3 3 2 3 2 2 2 3 4 6 4 5 4 3 5 2 4 0 2 0 5 8 14 15 9 7 14
5 6 4 5 7 9 11 12 13 10 4 1 1 0 2 2 2 1 3 2 3 3 4 2 2 1 3 8 8 7 9 7 5 6 2 5 4 2 2 4 4 4 3 3 12 7 14
6 5 6 3 5 7 9 11 12 11 5 2 1 1 0 1 1 2 3 1 3 1 1 2 2 3 9 3 2 4 2 2 3 4 1 4 3 2 2 3 6 3 5 6 5 3 4
8 6 5 6 1 4 6 8 10 11 5 3 2 1 0 1 2 1 3 3 3 2 2 2 3 3 2 1 2 2 3 1 4 4 2 2 1 2 2 2 2 3 3 2 1 5 3
10 7 6 6 3 1 3 6 8 10 5 2 2 1 1 0 2 3 2 2 3 2 1 2 4 3 2 3 3 3 2 0 3 5 5 4 3 6 4 4 6 2 5 3 3 4 3
12 9 7 6 5 4 2 3 5 7 6 0 2 1 1 0 0 2 1 3 3 2 3 4 4 2 2 4 3 3 3 3 3 2 5 6 7 4 3 3 4 4 6 2 4 3 8
14 12 9 8 7 6 4 2 2 5 7 2 1 1 1 1 2 1 1 2 3 2 2 3 1 3 2 2 2 2 3 3 4 2 2 4 3 3 7 2 2 1 5 3 2 7 7
Wind_Direction
12 6 359 1 5 20 22 20 8 7 7 16 18 15 15 9 15 20 78 26 7 29 2 318 237 147 146 156 90 360 357 339 307 215 185 176 172 164 153 133 121 102 120 78 93 101 88
1 6 360 1 2 18 22 21 10 9 11 13 19 16 13 14 14 46 72 123 5 342 302 270 152 132 122 110 23 3 4 335 335 209 170 179 177 128 111 103 169 123 114 107 78 89 74
2 5 2 360 4 11 27 22 13 15 12 12 19 19 23 28 37 48 56 142 211 237 155 138 133 121 65 69 33 8 346 327 296 245 153 159 135 143 132 111 120 128 107 111 50 41 90
7 4 6 358 5 10 29 26 12 11 11 14 14 23 22 19 12 15 7 29 35 41 73 99 57 88 74 3 347 65 346 326 277 219 107 109 109 94 66 118 110 120 144 146 67 330 57
13 4 5 2 1 12 24 24 15 16 15 17 43 35 22 9 359 351 0 18 61 47 50 19 56 79 104 239 150 20 294 299 296 110 90 101 79 85 155 140 119 150 152 138 144 25 323
13 8 4 5 358 16 20 27 17 19 24 23 29 23 14 1 354 345 343 18 56 43 8 58 49 86 351 106 358 315 274 280 202 134 104 55 88 140 149 180 174 161 138 119 144 84 275
10 9 5 6 3 10 20 22 20 21 23 13 16 16 6 3 5 360 347 63 331 53 40 49 23 69 76 323 268 271 295 278 156 108 117 35 156 158 143 309 120 128 143 116 103 54 282
6 9 7 7 5 4 14 22 26 25 25 8 357 2 4 6 21 19 66 70 33 45 67 19 26 49 52 318 72 293 343 130 114 101 119 96 107 77 92 117 115 123 139 94 109 57 285
7 7 10 8 6 5 8 15 25 33 27 10 358 4 2 344 8 37 72 70 352 315 70 19 20 357 342 348 87 345 350 84 72 83 107 104 89 96 132 115 107 66 114 138 121 141 91
9 1 10 9 7 4 4 4 8 27 28 12 357 354 359 339 317 337 49 88 344 300 94 7 360 41 343 324 28 295 300 52 61 98 86 69 38 111 101 78 12 97 58 104 113 175 146
15 3 5 5 9 4 3 358 348 345 17 14 358 348 354 28 28 349 48 44 355 252 58 336 342 309 300 12 142 9 343 57 81 78 190 83 76 73 66 16 347 115 120 90 79 83 219
12 7 2 360 4 2 1 359 349 336 315 299 333 13 351 37 91 38 352 335 194 226 51 347 344 6 79 111 99 86 80 63 106 76 74 88 72 37 70 61 91 131 109 77 72 85 216
11 6 3 1 360 358 356 356 350 336 331 299 309 358 38 256 15 334 318 250 157 44 243 359 28 326 86 92 84 78 57 63 86 109 54 79 43 68 52 93 91 139 158 89 155 191 264
12 9 2 1 357 356 357 353 348 339 332 310 315 356 42 10 307 312 260 231 67 32 56 219 225 113 81 43 50 47 83 83 44 86 107 107 137 16 3 24 98 76 319 274 171 180 103
10 9 5 2 357 353 354 355 349 339 325 306 325 299 173 43 327 221 241 56 74 148 164 166 272 70 59 55 74 80 49 60 59 23 101 134 70 24 20 68 314 135 173 20 97 73 263
3 3 5 3 359 353 353 356 355 348 333 92 322 308 33 331 319 245 55 92 60 27 57 10 41 23 106 61 94 73 60 17 97 42 329 133 111 85 103 175 57 335 133 150 95 179 248
357 1 1 5 0 352 353 354 357 2 61 50 337 293 66 328 272 53 40 61 73 118 233 263 351 114 108 128 86 93 92 125 99 95 82 142 110 142 187 207 180 156 174 85 84 310 302
358 2 358 2 3 355 350 351 350 349 349 5 357 354 35 302 73 68 57 69 188 144 180 223 257 111 124 150 87 93 113 52 103 151 127 99 109 138 116 90 314 278 202 216 241 176 215
357 6 1 1 1 1 355 351 345 328 195 200 48 326 73 302 97 106 139 141 120 104 66 58 47 30 43 59 73 73 85 30 82 70 140 167 149 127 153 180 182 225 192 200 99 10 203
353 0 5 6 1 2 2 357 354 17 154 73 289 45 34 54 21 53 131 126 131 312 63 78 102 151 122 86 48 116 104 53 28 79 54 273 124 300 112 63 102 194 192 196 207 201 173
349 351 1 7 6 3 6 7 7 68 121 299 8 66 23 54 67 63 360 10 119 151 113 253 114 104 131 118 108 108 106 125 63 13 43 352 230 2 304 277 260 237 191 196 211 221 231
325 343 350 8 6 7 6 11 13 2 357 67 63 184 153 96 147 158 25 139 239 33 339 24 136 101 68 126 33 171 150 200 154 131 97 13 107 22 286 46 226 254 238 227 225 239 249
290 320 342 356 8 6 8 8 17 18 357 73 100 119 267 72 144 206 143 154 156 161 72 36 104 112 90 54 53 55 64 87 117 172 151 168 149 113 266 306 304 259 234 213 216 225 233
248 295 320 347 2 7 5 11 17 30 34 30 99 225 235 136 237 265 175 173 168 165 143 132 117 166 105 118 108 91 70 67 72 57 1 151 146 181 254 247 223 80 152 211 215 236 220
231 254 297 331 353 2 6 8 16 29 57 75 100 250 231 276 251 197 187 152 129 103 97 133 94 68 145 145 151 148 136 159 78 44 337 333 208 178 265 254 325 143 179 173 207 94 207
217 241 268 295 338 344 0 7 13 23 79 91 62 314 75 250 196 71 161 181 190 182 143 94 67 124 153 153 177 228 220 89 166 156 78 107 70 257 158 263 215 78 121 161 215 181 129
205 215 244 269 231 270 342 5 12 21 48 107 90 306 269 189 142 185 199 176 131 131 107 143 162 165 298 168 194 212 195 45 205 193 172 163 176 217 208 265 276 239 124 138 226 72 348
203 197 224 247 245 232 240 351 11 16 36 249 96 38 308 165 226 202 177 150 138 204 186 128 159 170 135 202 204 170 204 181 226 160 188 183 165 185 177 229 279 141 125 272 33 347 321
204 189 204 230 230 217 212 220 360 9 27 125 117 57 334 266 56 34 44 348 340 351 147 178 339 159 166 145 213 134 188 176 193 227 190 221 217 178 220 234 19 209 57 138 46 310 304